Tracking 28052 objects as of 24-Sep-2023
HD Live streaming from Space Station
objects crossing your sky now

STARLINK-30303

Track STARLINK-30303 now!
10-day predictions
STARLINK-30303 is classified as:


NORAD ID: 57677
Int'l Code: 2023-124Q
Perigee: 511.4 km
Apogee: 516.2 km
Inclination: 53.1 °
Period: 94.8 minutes
Semi major axis: 6884 km
RCS: Unknown
Launch date: August 22, 2023
Source: United States (US)
Launch site: AIR FORCE WESTERN TEST RANGE (AFWTR)
Your satellite tracking list
Your tracking list is empty




NASA's NSSDC Master Catalog

Two Line Element Set (TLE):
1 57677U 23124Q   23266.55827790 -.00965090  00000-0 -48321-1 0  9996
2 57677  53.0540  47.0207 0003486 142.5781 217.5457 15.19714925  6113
Source of the keplerian elements: AFSPC